Regional Weather Roundup
Issued by NWS Portland, ME

Home | Current Version | Previous Version | Text Only | Print | Product List | Glossary On
Versions: 1 2 3 4 5 6 7 8 9 10 11 12 13 14 15 16 17 18 19 20 21 22 23 24 25 26 27 28 29 30 31 32 33 34 35 36 37 38 39 40 41 42 43 44 45 46 47 48 49 50
000
ASUS41 KGYX 280010
RWRGYX
WEATHER ROUNDUP FOR MAINE AND NEW HAMPSHIRE
NATIONAL WEATHER SERVICE GRAY ME
800 PM EDT THU APR 27 2017

MEZ002-005-006-010-012-015-018-020-021-024-026-027-029-280100-
MAINE

CITY           SKY/WX    TMP DP  RH WIND       PRES   REMARKS
PORTLAND       FOG       50  49  96 S3        29.94R VSB 1
6HR MIN TEMP:  50; 6HR MAX TEMP:  60;

SANFORD        FOG       52  51  97 CALM      29.93S VSB 1/2
WISCASSET      CLOUDY    56  54  93 CALM      29.93S
6HR MIN TEMP:  56; 6HR MAX TEMP:  62;

ROCKLAND       FOG       50  50 100 NE7       29.93S VSB 1
FRYEBURG       CLOUDY    61  58  90 E7        29.90F
6HR MIN TEMP:  61; 6HR MAX TEMP:  64;

LEWISTONAUBURN CLOUDY    61  58  90 SE5       29.91S
AUGUSTA        CLOUDY    59  56  89 E6        29.91F
6HR MIN TEMP:  59; 6HR MAX TEMP:  62;

WATERVILLE     CLOUDY    60  59  96 CALM      29.89S
BANGOR         CLOUDY    57  56  96 SE8       29.93S FOG
6HR MIN TEMP:  57; 6HR MAX TEMP:  66; 6HR PCP: TRACE;

GREENVILLE       N/A     57  57 100 CALM      29.90F
6HR MIN TEMP:  57; 6HR MAX TEMP:  58;

MILLINOCKET    CLOUDY    58  58 100 SE3       29.95R
6HR MIN TEMP:  58; 6HR MAX TEMP:  64; 6HR PCP: TRACE;

HOULTON        CLOUDY    60  60 100 SE6       29.94S
6HR MIN TEMP:  60; 6HR MAX TEMP:  65; 6HR PCP:  0.01;

PRESQUE ISLE   CLOUDY    61  58  90 S10       29.95R
6HR MIN TEMP:  60; 6HR MAX TEMP:  67;

FRENCHVILLE    FOG       45  43  93 NE7       29.95R VSB 3/4
6HR MIN TEMP:  45; 6HR MAX TEMP:  54; 6HR PCP: TRACE;

CARIBOU        CLOUDY    59  57  93 E6        29.94R FOG
6HR MIN TEMP:  59; 6HR MAX TEMP:  67; 6HR PCP:  0.01;

$$

NHZ002-005-008-009-011-012-014-280100-
NEW HAMPSHIRE

CITY           SKY/WX    TMP DP  RH WIND       PRES   REMARKS
PORTSMOUTH     FOG       49  48  97 E8        29.91R VSB 1/4
ROCHESTER      CLOUDY    53  51  93 E5        29.91S FOG
6HR MIN TEMP:  53; 6HR MAX TEMP:  68;

NASHUA         CLOUDY    63  57  81 E12       29.91R
MANCHESTER     MOCLDY    62  54  74 SE12      29.89R
6HR MIN TEMP:  62; 6HR MAX TEMP:  66;

CONCORD        PTCLDY    62  57  83 SE3       29.90R
6HR MIN TEMP:  62; 6HR MAX TEMP:  68;

LACONIA        PTCLDY    61  57  87 CALM      29.90R
PLYMOUTH       CLOUDY    63  57  82 CALM      29.89R
BERLIN         MOCLDY    61  54  77 S8        29.88R
6HR MIN TEMP:  61; 6HR MAX TEMP:  73;

WHITEFIELD     CLEAR     64  53  67 SE10G18   29.85R
6HR MIN TEMP:  64; 6HR MAX TEMP:  74;

JAFFREY        CLOUDY    62  59  90 SE3       29.91R
6HR MIN TEMP:  62; 6HR MAX TEMP:  67;

KEENE          CLOUDY    64  56  75 S10       29.89R
LEBANON        CLOUDY    66  58  75 VRB5      29.84S
6HR MIN TEMP:  66; 6HR MAX TEMP:  71;

MT WASHINGTON  MOCLDY    45  43  93 S23         N/A
6HR MIN TEMP:  44; 6HR MAX TEMP:  50;

$$

VTZ005-007-008-280100-
VERMONT

CITY           SKY/WX    TMP DP  RH WIND       PRES   REMARKS
ST JOHNSBURY     N/A     66  55  67 MISG      29.82S
MONTPELIER     CLOUDY    65  57  75 S9        29.86S
BURLINGTON     PTCLDY    72  56  57 SE12G18   29.74S
$$

MAZ007-012-024-CTZ003-RIZ002-NYZ038-NYZ072-280100-
SOUTHERN NEW ENGLAND AND NY

CITY           SKY/WX    TMP DP  RH WIND       PRES   REMARKS
BOSTON         CLOUDY    51  50  96 E9        29.93R FOG
WORCESTER      CLOUDY    61  54  77 S6        29.92R
NANTUCKET      CLOUDY    48  47  96 S8        29.97R FOG
PROVIDENCE     CLOUDY    57  56  96 S5        29.94R
HARTFORD       CLOUDY    64  57  78 S10       29.90R
ALBANY         MOCLDY    69  57  65 S13       29.81S
NEW YORK CITY  CLOUDY    63  58  83 SE12      29.88S FOG
$$

ANZ081-ANZ082-ANZ150-NHZ014-MEZ023>029-280100-
COASTAL MARINE OBSERVATIONS

STATION/POSITION TIME  TEMP    WIND        PRES    WAVE
                       AIR SEA DIR/SP/G            HT/PER
                 (UTC) (F)     (DEG/KT/KT) (MB)    (FT/S)
MOUNT DESERT ROC 0000   43                 1014.6R
MATINICUS ROCK   0000   43     100/ 15/ 16 1013.1S
ISLE OF SHOALS   0000   46      90/  3/  3 1013.4R
JEFFREYS LEDGE   2336      46                N/A     6/11
CASHES LEDGE BUO 2350   45 44              1013.8R   7/11
GEORGES BANK BUO 2250   46 42              1015.6   10/ 9
$$

.............KEY..............
   WCI - WIND CHILL
   TC  - TEMPERATURE IN CELSIUS
   VSB - VISIBILITY IN MILES
   HX  - HEAT INDEX
   FAIR- INDICATES FEW OR NO CLOUDS BELOW 12,000 FT, WITH NO
         SIGNIFICANT WEATHER AND/OR OBSTRUCTIONS TO VISIBILITY.





USA.gov is the U.S. government's official web portal to all federal, state and local government web resources and services.